Simultaneous Nadir Overpasses (SNOs) Predictions

Prediction of SNOs between GOES-17 and NPP Satellite Orbit:

Table of predicted SNOs for the next 14.0 days since TLE Epoch: 3/16/2024
Index Date Time (GOES-17) GOES-17 Lat,Lon NPP Lat,Lon Distance(km) Time Diff (sec)
1 03/16/2024 20:24:05 0.01,-104.67 0.07,-104.36 35.37 80
2 03/19/2024 08:27:11 0.01,-104.70 0.09,-105.12 47.52 80
3 03/20/2024 08:05:46 0.02,-104.69 -0.88,-100.58 468.33 80
4 03/21/2024 20:27:45 -0.01,-104.67 -0.29,-105.90 140.45 80
5 03/22/2024 20:11:41 -0.01,-104.67 0.74,-101.37 375.45 80
6 03/24/2024 08:33:31 0.00,-104.70 0.43,-106.66 222.53 80
7 03/25/2024 08:12:06 0.00,-104.70 -0.55,-102.12 293.48 80
8 03/26/2024 20:34:04 0.00,-104.67 -0.61,-107.44 314.89 80
9 03/27/2024 20:18:01 0.01,-104.68 0.43,-102.92 201.10 80
10 03/29/2024 08:39:49 -0.01,-104.71 0.79,-108.19 397.07 80
